Location: Sternwarte ZA, Rosenfeld-Brittheim
(48.2889°N, 8.6789°E)
Time: 13:59:28
(UTC+02:00)

ISS - Pass Details

Date: 20 July 2018
Orbit: 402 x 408 km, 51.6° (Epoch: 21 July)

Event Time Altitude Azimuth Distance (km) Brightness Sun altitude
Rises 03:49:57 0° 292° (WNW) 2,332 -0.1 -14.4°
Reaches altitude 10° 03:52:02 10° 291° (WNW) 1,471 -1.1 -14.2°
Maximum altitude 03:55:20 79° 204° (SSW) 419 -3.9 -13.9°
Drops below altitude 10° 03:58:38 10° 118° (ESE) 1,467 -0.9 -13.6°
Sets 04:00:42 0° 117° (ESE) 2,326 0.1 -13.4°
